Weather History for Lake Charles Regional, LA

Change the Weather History Date:

Saturday, November 16, 2013

  Actual Average Record
Temperature  
Mean Temperature 70 °F 61 °F  
Max Temperature 78 °F 71 °F 88 °F (1913)
Min Temperature 62 °F 51 °F 23 °F (1916)
Degree Days  
Heating Degree Days 0 6  
Month to date heating degree days 77 66  
Since 1 July heating degree days 95 102  
Cooling Degree Days 5 2  
Month to date cooling degree days 19 39  
Year to date cooling degree days 2926 2772  
Growing Degree Days 21 (Base 50)    
Moisture  
Dew Point 68 °F    
Average Humidity 87    
Maximum Humidity 100    
Minimum Humidity 74    
Precipitation  
Precipitation T in 0.13 in 5.40 in (1918)
Month to date precipitation 0.33 2.46  
Year to date precipitation 52.56 50.84  
Snow  
Snow 0.00 in 0.00 in 0.00 in ()
Month to date snowfall 0.0 0.0  
Since 1 July snowfall 0.0 0.0  
Since 1 September snowfall 0.0 0.0  
Snow Depth 0.00 in    
Sea Level Pressure  
Sea Level Pressure 29.95 in    
Wind  
Wind Speed 11 mph (SE)    
Max Wind Speed 21 mph    
Max Gust Speed 28 mph    
Visibility 6 miles    
Events Fog , Rain    
T = Trace of Precipitation, MM = Missing Value Source: NWS Daily Summary

Daily Weather History Graph

Daily Weather History Graph

Search for Another Location

Airport:

Trip Planner

Search our weather history database for the weather conditions in past years. The results will help you decide how hot, cold, wet, or windy it might be!

Date:

Astronomy

Nov. 16, 2013 Rise Set
Actual Time 6:39 AM CST 5:15 PM CST
Civil Twilight 6:13 AM CST 5:41 PM CST
Nautical Twilight 5:44 AM CST 6:10 PM CST
Astronomical Twilight 5:16 AM CST 6:38 PM CST
Moon 4:49 PM CST (11/16) 5:39 AM CST (11/16)
Length of Visible Light 11h 27m
Length of Day
10h 36m
Waxing Gibbous, 99% of the Moon is Illuminated
Nov 16
Waxing Gibbous
Nov 17
Full
Nov 25
Last Quarter
Dec 2
New
Dec 9
First Quarter

Hourly Weather History & Observations

Time (CST) Temp. Dew Point Humidity Pressure Visibility Wind Dir Wind Speed Gust Speed Precip Events Conditions
12:45 AM 62.6 °F 62.6 °F 100% 29.98 in 0.2 mi ESE 4.6 mph - N/A Fog Fog
12:53 AM 63.0 °F 63.0 °F 100% 30.00 in 0.2 mi SE 6.9 mph - N/A Fog Fog
1:53 AM 64.0 °F 64.0 °F 100% 30.00 in 0.2 mi ESE 6.9 mph - N/A Fog Fog
2:05 AM 64.4 °F 64.4 °F 100% 29.97 in 0.5 mi SE 6.9 mph - N/A Fog Fog
2:41 AM 64.4 °F 64.4 °F 100% 29.96 in 0.2 mi ESE 4.6 mph - N/A Fog Fog
2:53 AM 64.9 °F 64.9 °F 100% 29.99 in 0.2 mi ESE 5.8 mph - N/A Fog Fog
3:11 AM 64.4 °F 64.4 °F 100% 29.95 in 0.5 mi ESE 3.5 mph - N/A Fog Fog
3:53 AM 64.9 °F 64.9 °F 100% 29.97 in 0.2 mi ESE 4.6 mph - N/A Fog Fog
4:40 AM 64.4 °F 64.4 °F 100% 29.95 in 0.2 mi East 3.5 mph - N/A Fog Fog
4:50 AM 64.4 °F 64.4 °F 100% 29.95 in 0.2 mi East 3.5 mph - N/A Fog Fog
4:53 AM 64.9 °F 64.9 °F 100% 29.97 in 0.2 mi East 3.5 mph - N/A Fog Fog
5:29 AM 64.4 °F 64.4 °F 100% 29.95 in 0.5 mi ESE 6.9 mph - N/A Fog Fog
5:53 AM 64.9 °F 64.9 °F 100% 29.99 in 0.5 mi ESE 5.8 mph - N/A Fog Fog
6:53 AM 64.9 °F 64.9 °F 100% 29.99 in 0.2 mi ESE 6.9 mph - N/A Fog Fog
7:05 AM 64.4 °F 64.4 °F 100% 29.96 in 0.5 mi ESE 5.8 mph - N/A Fog Fog
7:33 AM 66.2 °F 66.2 °F 100% 29.97 in 0.2 mi SE 8.1 mph - N/A Fog Fog
7:53 AM 66.9 °F 66.9 °F 100% 30.00 in 0.2 mi SE 8.1 mph - N/A Fog Fog
8:07 AM 68.0 °F 68.0 °F 100% 29.98 in 0.8 mi SE 9.2 mph - N/A   Mist
8:53 AM 69.1 °F 68.0 °F 96% 30.01 in 1.0 mi SE 9.2 mph - N/A   Overcast
9:12 AM 69.8 °F 69.8 °F 100% 29.99 in 3.0 mi SSE 9.2 mph - N/A   Overcast
9:53 AM 73.9 °F 71.1 °F 91% 30.01 in 10.0 mi SSE 11.5 mph - N/A   Overcast
10:29 AM 75.2 °F 71.6 °F 89% 29.98 in 10.0 mi SSE 11.5 mph - N/A   Overcast
10:53 AM 77.0 °F 70.0 °F 79% 30.00 in 10.0 mi SSE 17.3 mph 20.7 mph N/A   Overcast
11:10 AM 77.0 °F 69.8 °F 78% 29.98 in 10.0 mi SSE 10.4 mph - N/A   Overcast
11:39 AM 78.8 °F 69.8 °F 74% 29.96 in 10.0 mi SSE 17.3 mph 21.9 mph N/A   Overcast
11:53 AM 78.1 °F 69.1 °F 74% 29.97 in 10.0 mi South 10.4 mph 23.0 mph N/A   Overcast
12:30 PM 77.0 °F 69.8 °F 78% 29.94 in 10.0 mi SSE 12.7 mph 17.3 mph N/A   Overcast
12:53 PM 77.0 °F 69.1 °F 76% 29.95 in 10.0 mi South 9.2 mph - N/A   Overcast
1:08 PM 77.0 °F 69.8 °F 78% 29.93 in 10.0 mi South 11.5 mph - N/A   Overcast
1:28 PM 77.0 °F 69.8 °F 78% 29.92 in 10.0 mi South 12.7 mph 17.3 mph N/A   Overcast
1:31 PM 77.0 °F 69.8 °F 78% 29.91 in 10.0 mi South 10.4 mph 17.3 mph N/A   Overcast
1:53 PM 77.0 °F 69.1 °F 76% 29.92 in 10.0 mi SSE 16.1 mph 20.7 mph N/A   Overcast
2:53 PM 77.0 °F 70.0 °F 79% 29.91 in 10.0 mi SSE 17.3 mph 23.0 mph N/A   Overcast
3:53 PM 75.9 °F 70.0 °F 82% 29.90 in 10.0 mi SSE 10.4 mph - N/A   Scattered Clouds
4:02 PM 75.2 °F 69.8 °F 83% 29.88 in 10.0 mi South 11.5 mph - N/A   Mostly Cloudy
4:53 PM 75.0 °F 69.1 °F 82% 29.90 in 10.0 mi SSE 13.8 mph - N/A   Overcast
5:07 PM 75.2 °F 69.8 °F 83% 29.88 in 10.0 mi SSE 10.4 mph - N/A   Overcast
5:53 PM 73.9 °F 70.0 °F 87% 29.91 in 10.0 mi SSE 11.5 mph - N/A   Mostly Cloudy
6:53 PM 73.0 °F 70.0 °F 90% 29.91 in 10.0 mi SSE 11.5 mph 21.9 mph N/A   Overcast
7:53 PM 72.0 °F 70.0 °F 93% 29.92 in 10.0 mi SSE 10.4 mph - N/A   Mostly Cloudy
8:16 PM 73.4 °F 71.6 °F 94% 29.91 in 10.0 mi SSE 11.5 mph - N/A   Overcast
8:53 PM 73.0 °F 71.1 °F 93% 29.94 in 10.0 mi SSE 12.7 mph - N/A   Overcast
9:35 PM 73.4 °F 71.6 °F 94% 29.91 in 10.0 mi SSE 11.5 mph - N/A   Overcast
9:53 PM 73.0 °F 71.1 °F 93% 29.94 in 10.0 mi SSE 10.4 mph - N/A   Overcast
10:53 PM 73.0 °F 71.1 °F 93% 29.94 in 10.0 mi SSE 13.8 mph - 0.00 in Rain Light Rain
11:00 PM 73.4 °F 71.6 °F 94% 29.91 in 10.0 mi SSE 12.7 mph - 0.00 in Rain Light Rain
11:09 PM 73.4 °F 71.6 °F 94% 29.91 in 10.0 mi SSE 13.8 mph - 0.00 in Rain Light Rain
11:13 PM 71.6 °F 71.6 °F 100% 29.90 in 10.0 mi SSE 12.7 mph - 0.00 in Rain Light Rain
11:21 PM 71.6 °F 71.6 °F 100% 29.90 in 10.0 mi SSE 12.7 mph - 0.00 in Rain Light Rain
11:53 PM 72.0 °F 71.1 °F 97% 29.93 in 10.0 mi SSE 12.7 mph - 0.00 in Rain Light Rain